Location: Azenweiler
(47.8027°N, 9.4096°E)
Time: 01:08:33
(UTC+00:00)

IRIDIUM 103 - Pass Details

Date: 10 December 2025
Orbit: 776 x 779 km, 86.4° (Epoch: 17 January)

Event Time Altitude Azimuth Distance (km) Brightness Sun altitude
Rises 05:21:41 0° 181° (S) 3,249 7.8 -15.7°
Reaches altitude 10° 05:24:01 10° 181° (S) 2,326 7.0 -15.4°
Maximum altitude 05:29:14 87° 94° (E) 788 4.3 -14.5°
Drops below altitude 10° 05:34:30 10° 4° (N) 2,344 6.7 -13.7°
Sets 05:36:52 0° 5° (N) 3,276 7.4 -13.3°
